QPF
0.09 0.17 0.26 0.27 0.27 0.28 0.35 0.44 0.59 0.78 0.81 0.76 0.70 0.64 0.47 0.35 0.28 0.21 0.16 0.15 0.13 0.09 0.06 0.03 0.01 0.01 0.01 0.01 0.01 0.01 0.01 0.01 0.02 0.02 0.01 0.01 0.01 0.00 0.00 0.00 0.00 0.00 0.01
0.11 0.13 0.16 0.17 0.19 0.22 0.32 0.41 0.44 0.54 0.57 0.60 0.63 0.62 0.50 0.34 0.23 0.17 0.12 0.10 0.07 0.05 0.03 0.02 0.01 0.01 0.01 0.00 0.01 0.01 0.01 0.01 0.01 0.00 0.00 0.00 0.00 0.00 0.00 0.00 0.01 0.00 0.01
0.14 0.16 0.14 0.13 0.13 0.18 0.28 0.39 0.39 0.42 0.43 0.44 0.50 0.48 0.38 0.29 0.22 0.18 0.12 0.09 0.06 0.05 0.04 0.03 0.02 0.01 0.01 0.01 0.01 0.01 0.01 0.00 0.00 0.00 0.00 0.00 0.00 0.00 0.00 0.00 0.00 0.00 0.00
0.12 0.13 0.12 0.12 0.12 0.12 0.17 0.23 0.24 0.25 0.27 0.31 0.35 0.33 0.25 0.20 0.16 0.15 0.13 0.11 0.10 0.07 0.06 0.05 0.04 0.03 0.02 0.02 0.02 0.01 0.00 0.00 0.00 0.00 0.00 0.00 0.00 0.00 0.00 0.00 0.00 0.00 0.00
0.09 0.11 0.11 0.11 0.10 0.10 0.12 0.13 0.13 0.15 0.17 0.20 0.21 0.22 0.21 0.17 0.16 0.15 0.13 0.12 0.12 0.12 0.11 0.09 0.08 0.06 0.05 0.04 0.04 0.03 0.02 0.01 0.00 0.00 0.00 0.00 0.00 0.00 0.00 0.00 0.00 0.00 0.00
0.09 0.10 0.11 0.11 0.09 0.09 0.10 0.09 0.09 0.10 0.11 0.11 0.11 0.11 0.11 0.11 0.10 0.10 0.11 0.10 0.10 0.11 0.10 0.08 0.07 0.07 0.06 0.06 0.05 0.04 0.03 0.02 0.01 0.01 0.01 0.00 0.00 0.00 0.00 0.00 0.00 0.00 0.00
0.09 0.09 0.08 0.07 0.06 0.07 0.06 0.06 0.05 0.05 0.05 0.05 0.06 0.07 0.06 0.06 0.06 0.07 0.08 0.08 0.07 0.06 0.05 0.06 0.06 0.06 0.06 0.05 0.04 0.04 0.03 0.03 0.02 0.01 0.01 0.01 0.00 0.00 0.00 0.00 0.00 0.00 0.00
0.04 0.04 0.03 0.03 0.02 0.02 0.02 0.02 0.02 0.01 0.01 0.02 0.02 0.03 0.03 0.04 0.04 0.04 0.04 0.04 0.04 0.04 0.03 0.04 0.04 0.04 0.04 0.04 0.04 0.04 0.04 0.03 0.02 0.01 0.01 0.01 0.00 0.00 0.00 0.00 0.00 0.00 0.00
0.02 0.02 0.02 0.02 0.01 0.01 0.01 0.00 0.00 0.00 0.00 0.00 0.01 0.03 0.03 0.02 0.02 0.02 0.02 0.02 0.01 0.01 0.02 0.02 0.03 0.03 0.04 0.04 0.03 0.03 0.03 0.03 0.02 0.01 0.01 0.00 0.00 0.00 0.00 0.00 0.01 0.01 0.00
0.01 0.01 0.01 0.00 0.00 0.00 0.00 0.00 0.00 0.00 0.00 0.00 0.00 0.00 0.00 0.00 0.00 0.00 0.00 0.00 0.00 0.00 0.00 0.00 0.01 0.01 0.02 0.02 0.03 0.03 0.03 0.02 0.02 0.02 0.02 0.01 0.01 0.01 0.01 0.01 0.01 0.01 0.01
0.01 0.01 0.00 0.00 0.00 0.00 0.00 0.00 0.00 0.00 0.00 0.00 0.00 0.00 0.00 0.00 0.00 0.00 0.00 0.00 0.00 0.00 0.00 0.00 0.00 0.00 0.00 0.01 0.02 0.02 0.02 0.02 0.02 0.02 0.02 0.01 0.01 0.01 0.01 0.01 0.01 0.01 0.01
0.00 0.00 0.00 0.00 0.00 0.00 0.00 0.00 0.00 0.00 0.00 0.00 0.00 0.00 0.00 0.00 0.00 0.00 0.00 0.00 0.00 0.00 0.00 0.00 0.00 0.00 0.00 0.00 0.00 0.01 0.02 0.02 0.01 0.01 0.01 0.01 0.01 0.01 0.01 0.01 0.01 0.00 0.00
0.00 0.00 0.00 0.00 0.00 0.00 0.00 0.00 0.00 0.00 0.00 0.00 0.00 0.00 0.00 0.00 0.00 0.00 0.00 0.00 0.00 0.00 0.00 0.00 0.00 0.00 0.00 0.00 0.00 0.00 0.01 0.01 0.01 0.01 0.01 0.01 0.01 0.01 0.01 0.00 0.00 0.00 0.00
0.00 0.00 0.00 0.00 0.00 0.00 0.00 0.00 0.00 0.00 0.00 0.00 0.00 0.00 0.00 0.00 0.00 0.00 0.00 0.00 0.00 0.00 0.00 0.00 0.00 0.00 0.00 0.00 0.00 0.00 0.00 0.01 0.01 0.01 0.01 0.01 0.01 0.01 0.01 0.01 0.01 0.00 0.01
0.00 0.00 0.00 0.00 0.00 0.00 0.00 0.00 0.00 0.00 0.00 0.00 0.00 0.00 0.00 0.00 0.00 0.00 0.00 0.00 0.00 0.00 0.00 0.00 0.00 0.00 0.00 0.00 0.00 0.00 0.01 0.01 0.01 0.01 0.01 0.01 0.02 0.01 0.01 0.01 0.01 0.01 0.01
0.00 0.00 0.00 0.00 0.00 0.00 0.00 0.00 0.00 0.00 0.00 0.00 0.00 0.00 0.00 0.00 0.00 0.00 0.00 0.01 0.01 0.00 0.00 0.00 0.00 0.00 0.00 0.00 0.00 0.00 0.00 0.01 0.01 0.01 0.01 0.02 0.02 0.02 0.01 0.01 0.01 0.01 0.01
0.00 0.00 0.00 0.00 0.00 0.00 0.00 0.00 0.00 0.00 0.00 0.00 0.00 0.01 0.01 0.01 0.01 0.01 0.01 0.01 0.01 0.01 0.01 0.00 0.00 0.00 0.00 0.00 0.00 0.00 0.00 0.00 0.00 0.00 0.01 0.02 0.02 0.03 0.02 0.02 0.02 0.02 0.02
0.00 0.00 0.00 0.00 0.00 0.00 0.00 0.00 0.00 0.01 0.01 0.01 0.01 0.01 0.02 0.01 0.01 0.01 0.01 0.02 0.02 0.01 0.01 0.00 0.00 0.00 0.00 0.00 0.00 0.00 0.00 0.00 0.00 0.00 0.01 0.02 0.03 0.03 0.03 0.03 0.03 0.04 0.03
0.00 0.00 0.00 0.00 0.00 0.00 0.00 0.01 0.01 0.01 0.02 0.02 0.03 0.03 0.03 0.02 0.02 0.02 0.02 0.02 0.02 0.02 0.01 0.00 0.00 0.00 0.00 0.00 0.00 0.00 0.00 0.00 0.00 0.00 0.02 0.03 0.03 0.03 0.04 0.03 0.03 0.04 0.06
0.00 0.00 0.00 0.00 0.00 0.01 0.01 0.02 0.02 0.02 0.03 0.04 0.04 0.04 0.04 0.04 0.03 0.03 0.02 0.02 0.01 0.01 0.01 0.00 0.00 0.00 0.00 0.00 0.00 0.00 0.00 0.00 0.00 0.00 0.02 0.05 0.06 0.06 0.05 0.04 0.03 0.03 0.05
0.00 0.00 0.00 0.00 0.00 0.01 0.02 0.03 0.03 0.03 0.04 0.04 0.03 0.03 0.03 0.04 0.04 0.04 0.03 0.03 0.02 0.01 0.01 0.01 0.00 0.00 0.00 0.00 0.01 0.01 0.01 0.01 0.01 0.01 0.02 0.06 0.08 0.09 0.07 0.06 0.04 0.03 0.04
0.00 0.00 0.00 0.00 0.01 0.02 0.03 0.04 0.04 0.03 0.03 0.03 0.02 0.03 0.03 0.04 0.05 0.05 0.04 0.03 0.02 0.02 0.01 0.01 0.00 0.00 0.00 0.01 0.02 0.02 0.02 0.04 0.03 0.02 0.02 0.04 0.09 0.13 0.13 0.09 0.06 0.05 0.05
0.00 0.00 0.01 0.01 0.01 0.02 0.03 0.04 0.04 0.04 0.03 0.03 0.03 0.03 0.03 0.03 0.04 0.04 0.04 0.03 0.02 0.02 0.02 0.01 0.00 0.00 0.00 0.01 0.02 0.02 0.03 0.05 0.04 0.03 0.03 0.06 0.10 0.14 0.17 0.16 0.09 0.05 0.05
0.00 0.01 0.01 0.02 0.02 0.02 0.03 0.04 0.04 0.04 0.04 0.03 0.03 0.03 0.03 0.03 0.04 0.04 0.04 0.03 0.02 0.02 0.02 0.01 0.01 0.00 0.01 0.01 0.02 0.03 0.03 0.04 0.04 0.04 0.06 0.10 0.15 0.18 0.21 0.22 0.14 0.08 0.06
0.00 0.01 0.02 0.03 0.03 0.03 0.03 0.03 0.03 0.04 0.04 0.03 0.03 0.03 0.04 0.04 0.04 0.04 0.04 0.03 0.02 0.02 0.01 0.01 0.01 0.01 0.02 0.02 0.03 0.04 0.04 0.05 0.05 0.05 0.08 0.11 0.17 0.23 0.24 0.23 0.18 0.14 0.10
0.01 0.01 0.02 0.03 0.03 0.03 0.03 0.03 0.03 0.04 0.05 0.05 0.04 0.05 0.05 0.05 0.06 0.06 0.06 0.04 0.02 0.02 0.01 0.01 0.01 0.01 0.01 0.01 0.02 0.03 0.04 0.05 0.06 0.07 0.09 0.11 0.18 0.26 0.28 0.26 0.22 0.19 0.14
MSLP
1010.59 1010.53 1010.54 1010.57 1010.57 1010.49 1010.31 1010.03 1009.65 1009.21 1008.74 1008.29 1007.88 1007.54 1007.30 1007.19 1007.19 1007.32 1007.57 1007.91 1008.33 1008.79 1009.28 1009.76 1010.21 1010.61 1010.96 1011.26 1011.52 1011.74 1011.93 1012.11 1012.25 1012.36 1012.43 1012.43 1012.37 1012.24 1012.06 1011.84 1011.62 1011.43 1011.30
1011.04 1010.94 1010.89 1010.84 1010.74 1010.57 1010.30 1009.95 1009.53 1009.09 1008.63 1008.21 1007.84 1007.55 1007.34 1007.22 1007.22 1007.32 1007.52 1007.82 1008.20 1008.65 1009.13 1009.62 1010.08 1010.50 1010.87 1011.19 1011.46 1011.69 1011.89 1012.08 1012.25 1012.39 1012.50 1012.54 1012.52 1012.43 1012.26 1012.04 1011.79 1011.55 1011.35
1011.38 1011.28 1011.21 1011.11 1010.95 1010.72 1010.40 1010.02 1009.59 1009.16 1008.76 1008.40 1008.10 1007.87 1007.71 1007.62 1007.61 1007.67 1007.82 1008.06 1008.37 1008.75 1009.17 1009.61 1010.03 1010.42 1010.76 1011.06 1011.30 1011.52 1011.72 1011.92 1012.11 1012.29 1012.45 1012.56 1012.61 1012.57 1012.45 1012.26 1012.03 1011.77 1011.52
1011.64 1011.57 1011.50 1011.40 1011.22 1010.95 1010.60 1010.21 1009.80 1009.42 1009.08 1008.80 1008.59 1008.43 1008.33 1008.27 1008.26 1008.29 1008.38 1008.53 1008.75 1009.03 1009.35 1009.69 1010.02 1010.33 1010.61 1010.84 1011.05 1011.23 1011.42 1011.62 1011.83 1012.06 1012.27 1012.46 1012.59 1012.64 1012.60 1012.47 1012.27 1012.02 1011.76
1011.86 1011.83 1011.79 1011.68 1011.50 1011.21 1010.86 1010.47 1010.09 1009.75 1009.47 1009.28 1009.15 1009.08 1009.04 1009.02 1009.01 1009.01 1009.05 1009.11 1009.22 1009.38 1009.57 1009.79 1010.01 1010.22 1010.40 1010.56 1010.71 1010.85 1011.01 1011.20 1011.43 1011.70 1011.97 1012.23 1012.45 1012.59 1012.64 1012.59 1012.46 1012.25 1012.00
1012.07 1012.06 1012.04 1011.94 1011.75 1011.46 1011.10 1010.71 1010.35 1010.05 1009.83 1009.70 1009.65 1009.65 1009.67 1009.68 1009.69 1009.68 1009.66 1009.65 1009.66 1009.70 1009.77 1009.87 1009.97 1010.07 1010.16 1010.24 1010.32 1010.42 1010.55 1010.73 1010.97 1011.26 1011.58 1011.90 1012.18 1012.41 1012.55 1012.58 1012.52 1012.38 1012.17
1012.25 1012.25 1012.23 1012.13 1011.92 1011.62 1011.25 1010.86 1010.50 1010.22 1010.04 1009.95 1009.95 1010.01 1010.07 1010.13 1010.15 1010.13 1010.09 1010.02 1009.96 1009.91 1009.88 1009.88 1009.88 1009.89 1009.90 1009.91 1009.94 1009.99 1010.10 1010.26 1010.49 1010.78 1011.12 1011.47 1011.80 1012.08 1012.29 1012.40 1012.41 1012.33 1012.18
1012.41 1012.40 1012.36 1012.23 1012.00 1011.67 1011.27 1010.86 1010.50 1010.21 1010.04 1009.98 1010.00 1010.09 1010.19 1010.27 1010.31 1010.30 1010.24 1010.15 1010.05 1009.96 1009.87 1009.80 1009.74 1009.69 1009.65 1009.61 1009.60 1009.63 1009.70 1009.84 1010.04 1010.31 1010.63 1010.97 1011.30 1011.60 1011.84 1012.00 1012.08 1012.07 1011.98
1012.55 1012.50 1012.42 1012.26 1011.98 1011.61 1011.18 1010.74 1010.35 1010.04 1009.85 1009.78 1009.80 1009.88 1009.99 1010.08 1010.14 1010.14 1010.10 1010.02 1009.92 1009.81 1009.71 1009.62 1009.54 1009.47 1009.41 1009.37 1009.34 1009.34 1009.39 1009.49 1009.65 1009.86 1010.12 1010.41 1010.70 1010.98 1011.22 1011.40 1011.52 1011.57 1011.56
1012.69 1012.59 1012.45 1012.23 1011.91 1011.49 1011.02 1010.54 1010.10 1009.76 1009.53 1009.41 1009.40 1009.45 1009.54 1009.63 1009.69 1009.71 1009.69 1009.64 1009.56 1009.49 1009.41 1009.35 1009.29 1009.24 1009.20 1009.16 1009.13 1009.13 1009.14 1009.20 1009.30 1009.43 1009.61 1009.81 1010.03 1010.24 1010.44 1010.62 1010.76 1010.87 1010.92
1012.84 1012.68 1012.48 1012.20 1011.82 1011.36 1010.84 1010.32 1009.84 1009.44 1009.15 1008.97 1008.89 1008.89 1008.93 1008.98 1009.03 1009.06 1009.06 1009.05 1009.03 1009.00 1008.99 1008.98 1008.97 1008.97 1008.97 1008.96 1008.95 1008.94 1008.93 1008.94 1008.97 1009.02 1009.09 1009.19 1009.30 1009.43 1009.57 1009.72 1009.86 1010.01 1010.13
1013.02 1012.80 1012.54 1012.20 1011.77 1011.26 1010.71 1010.14 1009.62 1009.16 1008.80 1008.54 1008.37 1008.28 1008.25 1008.25 1008.26 1008.28 1008.30 1008.33 1008.36 1008.40 1008.45 1008.51 1008.57 1008.63 1008.68 1008.71 1008.72 1008.72 1008.70 1008.67 1008.63 1008.59 1008.56 1008.55 1008.55 1008.59 1008.66 1008.77 1008.91 1009.08 1009.27
1013.21 1012.94 1012.61 1012.22 1011.75 1011.20 1010.62 1010.02 1009.45 1008.94 1008.50 1008.15 1007.88 1007.69 1007.56 1007.49 1007.45 1007.45 1007.48 1007.53 1007.61 1007.71 1007.83 1007.96 1008.08 1008.20 1008.30 1008.37 1008.41 1008.41 1008.38 1008.32 1008.23 1008.12 1008.01 1007.91 1007.82 1007.78 1007.79 1007.86 1007.99 1008.18 1008.42
1013.40 1013.07 1012.69 1012.24 1011.73 1011.16 1010.55 1009.93 1009.32 1008.75 1008.24 1007.80 1007.43 1007.13 1006.91 1006.75 1006.65 1006.61 1006.63 1006.70 1006.81 1006.96 1007.13 1007.32 1007.50 1007.67 1007.81 1007.91 1007.97 1007.98 1007.95 1007.87 1007.75 1007.61 1007.44 1007.28 1007.13 1007.03 1007.00 1007.04 1007.17 1007.37 1007.64
1013.54 1013.15 1012.71 1012.22 1011.67 1011.07 1010.45 1009.81 1009.17 1008.56 1007.98 1007.46 1007.00 1006.60 1006.28 1006.03 1005.87 1005.80 1005.80 1005.87 1006.01 1006.19 1006.40 1006.62 1006.84 1007.03 1007.19 1007.32 1007.39 1007.42 1007.39 1007.31 1007.19 1007.03 1006.85 1006.67 1006.50 1006.37 1006.32 1006.34 1006.46 1006.67 1006.95
1013.59 1013.13 1012.63 1012.09 1011.51 1010.89 1010.25 1009.60 1008.94 1008.30 1007.67 1007.08 1006.54 1006.06 1005.66 1005.35 1005.13 1005.02 1005.01 1005.08 1005.23 1005.43 1005.66 1005.89 1006.12 1006.32 1006.49 1006.62 1006.70 1006.73 1006.72 1006.66 1006.56 1006.42 1006.26 1006.08 1005.93 1005.81 1005.75 1005.77 1005.88 1006.08 1006.35
1013.51 1012.98 1012.42 1011.82 1011.21 1010.57 1009.92 1009.26 1008.59 1007.93 1007.27 1006.63 1006.04 1005.50 1005.04 1004.68 1004.44 1004.30 1004.28 1004.35 1004.50 1004.71 1004.94 1005.18 1005.40 1005.59 1005.75 1005.87 1005.95 1005.98 1005.98 1005.95 1005.88 1005.78 1005.66 1005.53 1005.40 1005.30 1005.25 1005.27 1005.37 1005.54 1005.78
1013.28 1012.69 1012.06 1011.42 1010.77 1010.11 1009.45 1008.79 1008.12 1007.44 1006.77 1006.11 1005.48 1004.92 1004.43 1004.05 1003.79 1003.65 1003.62 1003.70 1003.86 1004.06 1004.29 1004.51 1004.72 1004.89 1005.02 1005.12 1005.18 1005.22 1005.23 1005.22 1005.19 1005.13 1005.06 1004.98 1004.89 1004.82 1004.79 1004.80 1004.88 1005.01 1005.19
1012.95 1012.29 1011.60 1010.92 1010.23 1009.56 1008.90 1008.23 1007.56 1006.88 1006.20 1005.54 1004.91 1004.33 1003.84 1003.46 1003.20 1003.07 1003.06 1003.15 1003.31 1003.51 1003.73 1003.93 1004.11 1004.25 1004.35 1004.42 1004.47 1004.50 1004.51 1004.52 1004.52 1004.50 1004.47 1004.42 1004.38 1004.33 1004.30 1004.30 1004.34 1004.41 1004.53
1012.55 1011.83 1011.10 1010.38 1009.67 1008.99 1008.31 1007.65 1006.98 1006.30 1005.63 1004.97 1004.35 1003.79 1003.31 1002.94 1002.70 1002.58 1002.59 1002.68 1002.85 1003.04 1003.25 1003.43 1003.58 1003.70 1003.77 1003.81 1003.83 1003.85 1003.86 1003.87 1003.88 1003.89 1003.88 1003.86 1003.83 1003.79 1003.75 1003.72 1003.72 1003.73 1003.78
1012.14 1011.38 1010.62 1009.87 1009.15 1008.45 1007.77 1007.10 1006.44 1005.77 1005.10 1004.46 1003.85 1003.30 1002.85 1002.50 1002.28 1002.18 1002.19 1002.30 1002.46 1002.65 1002.85 1003.01 1003.14 1003.23 1003.27 1003.29 1003.29 1003.29 1003.29 1003.30 1003.31 1003.31 1003.30 1003.28 1003.24 1003.19 1003.13 1003.07 1003.01 1002.98 1002.96
1011.77 1010.99 1010.21 1009.44 1008.71 1008.00 1007.31 1006.64 1005.97 1005.31 1004.65 1004.02 1003.43 1002.90 1002.46 1002.14 1001.93 1001.85 1001.87 1001.97 1002.13 1002.31 1002.49 1002.64 1002.76 1002.82 1002.86 1002.86 1002.85 1002.83 1002.81 1002.80 1002.79 1002.78 1002.75 1002.70 1002.64 1002.55 1002.46 1002.36 1002.27 1002.19 1002.12
1011.45 1010.66 1009.87 1009.10 1008.36 1007.64 1006.94 1006.26 1005.59 1004.92 1004.27 1003.65 1003.08 1002.57 1002.15 1001.84 1001.65 1001.57 1001.59 1001.68 1001.83 1002.00 1002.17 1002.31 1002.41 1002.48 1002.51 1002.51 1002.49 1002.46 1002.43 1002.40 1002.36 1002.31 1002.25 1002.16 1002.06 1001.93 1001.80 1001.67 1001.55 1001.44 1001.36
1011.20 1010.40 1009.61 1008.83 1008.07 1007.34 1006.62 1005.93 1005.25 1004.58 1003.94 1003.33 1002.77 1002.28 1001.88 1001.59 1001.41 1001.33 1001.34 1001.43 1001.56 1001.72 1001.87 1002.01 1002.11 1002.18 1002.22 1002.23 1002.21 1002.18 1002.14 1002.09 1002.02 1001.94 1001.83 1001.70 1001.55 1001.39 1001.22 1001.07 1000.93 1000.83 1000.76
1010.97 1010.18 1009.38 1008.58 1007.81 1007.05 1006.32 1005.60 1004.91 1004.24 1003.61 1003.01 1002.48 1002.02 1001.64 1001.37 1001.20 1001.12 1001.13 1001.20 1001.32 1001.47 1001.62 1001.75 1001.87 1001.95 1002.00 1002.03 1002.03 1002.00 1001.96 1001.89 1001.80 1001.68 1001.53 1001.36 1001.17 1000.98 1000.80 1000.63 1000.50 1000.42 1000.38
1010.77 1009.96 1009.14 1008.33 1007.52 1006.74 1005.97 1005.24 1004.53 1003.87 1003.25 1002.68 1002.18 1001.76 1001.42 1001.17 1001.02 1000.96 1000.97 1001.04 1001.15 1001.29 1001.44 1001.58 1001.70 1001.80 1001.88 1001.93 1001.95 1001.94 1001.90 1001.82 1001.71 1001.57 1001.39 1001.19 1000.98 1000.77 1000.58 1000.43 1000.32 1000.27 1000.28
Thickness
5757 5758 5757 5756 5754 5750 5747 5745 5742 5740 5737 5731 5727 5724 5720 5720 5720 5723 5723 5722 5722 5724 5722 5720 5718 5718 5716 5714 5714 5713 5712 5712 5714 5713 5713 5717 5720 5722 5725 5725 5726 5727 5728
5746 5745 5744 5743 5740 5738 5736 5735 5732 5730 5729 5725 5720 5717 5714 5714 5715 5714 5715 5716 5718 5718 5717 5715 5714 5713 5712 5710 5708 5708 5707 5708 5709 5707 5705 5705 5710 5716 5720 5721 5722 5723 5725
5732 5731 5729 5729 5727 5726 5725 5725 5722 5720 5719 5717 5714 5710 5708 5706 5705 5704 5706 5709 5712 5712 5711 5711 5710 5709 5707 5705 5705 5704 5703 5702 5703 5704 5702 5699 5700 5704 5712 5714 5717 5718 5720
5721 5719 5716 5716 5715 5714 5714 5714 5713 5711 5710 5709 5705 5700 5697 5696 5696 5697 5700 5702 5703 5704 5704 5704 5704 5703 5702 5701 5701 5701 5699 5698 5697 5699 5700 5700 5700 5698 5700 5706 5710 5713 5716
5709 5707 5706 5705 5704 5704 5702 5702 5702 5701 5699 5699 5697 5694 5690 5689 5689 5691 5692 5694 5695 5695 5695 5696 5695 5695 5695 5695 5696 5696 5695 5694 5694 5694 5695 5694 5694 5696 5695 5696 5701 5706 5710
5700 5697 5696 5695 5694 5694 5692 5690 5689 5688 5688 5688 5686 5684 5681 5680 5679 5680 5680 5682 5683 5684 5685 5686 5686 5687 5688 5688 5689 5690 5690 5689 5689 5690 5691 5691 5690 5691 5691 5691 5693 5697 5703
5692 5689 5687 5685 5684 5683 5682 5681 5679 5677 5676 5674 5673 5672 5671 5670 5670 5670 5670 5670 5671 5671 5673 5674 5676 5677 5679 5681 5682 5682 5682 5683 5683 5684 5685 5687 5688 5689 5689 5689 5689 5691 5696
5685 5682 5680 5678 5676 5674 5673 5670 5667 5665 5663 5662 5661 5660 5659 5658 5658 5658 5658 5658 5658 5660 5661 5662 5664 5666 5668 5671 5672 5673 5674 5676 5676 5678 5679 5680 5683 5683 5684 5685 5685 5685 5688
5677 5674 5673 5670 5668 5665 5662 5659 5655 5652 5650 5649 5648 5646 5645 5644 5643 5643 5643 5643 5644 5645 5647 5648 5650 5652 5655 5658 5660 5661 5663 5665 5667 5670 5671 5673 5676 5677 5678 5680 5681 5681 5681
5668 5665 5662 5659 5657 5654 5651 5647 5643 5639 5637 5635 5633 5632 5630 5629 5628 5627 5627 5628 5629 5630 5631 5633 5635 5638 5640 5643 5646 5649 5651 5653 5656 5659 5661 5664 5667 5670 5671 5673 5675 5677 5679
5657 5653 5650 5647 5644 5641 5637 5633 5629 5625 5622 5620 5618 5615 5614 5613 5612 5612 5613 5613 5613 5614 5615 5617 5619 5622 5625 5627 5630 5634 5637 5641 5644 5647 5651 5654 5657 5660 5663 5665 5668 5670 5673
5645 5641 5637 5634 5629 5625 5622 5618 5614 5611 5608 5605 5602 5600 5598 5596 5595 5595 5596 5597 5597 5598 5598 5600 5602 5604 5608 5610 5613 5617 5622 5626 5631 5635 5639 5643 5647 5651 5654 5657 5661 5664 5668
5633 5628 5624 5619 5615 5611 5607 5603 5599 5595 5593 5590 5586 5584 5582 5580 5579 5579 5579 5579 5580 5581 5582 5583 5585 5588 5591 5594 5597 5601 5606 5611 5616 5621 5626 5632 5636 5640 5644 5648 5653 5657 5661
5619 5614 5609 5604 5599 5595 5591 5587 5584 5581 5577 5574 5571 5569 5567 5565 5564 5564 5563 5562 5563 5564 5565 5567 5569 5572 5575 5578 5582 5585 5590 5595 5600 5606 5612 5618 5624 5630 5635 5639 5644 5648 5652
5607 5602 5596 5590 5585 5581 5577 5572 5568 5565 5561 5557 5554 5553 5552 5551 5550 5549 5548 5548 5549 5550 5551 5553 5555 5558 5561 5565 5568 5571 5575 5579 5584 5591 5597 5604 5611 5618 5624 5630 5635 5639 5644
5596 5591 5585 5579 5573 5567 5562 5557 5553 5548 5544 5541 5540 5539 5537 5536 5535 5534 5535 5535 5537 5538 5540 5542 5544 5547 5551 5555 5558 5559 5562 5565 5570 5575 5582 5590 5598 5606 5613 5620 5626 5632 5636
5586 5580 5574 5567 5561 5554 5548 5542 5538 5534 5530 5527 5525 5524 5522 5522 5522 5523 5523 5524 5525 5527 5530 5533 5536 5539 5543 5546 5549 5551 5552 5554 5558 5562 5568 5576 5586 5593 5601 5609 5616 5623 5629
5577 5571 5565 5558 5551 5544 5538 5531 5526 5520 5517 5514 5512 5510 5509 5509 5510 5510 5511 5513 5515 5518 5521 5525 5529 5532 5536 5539 5540 5542 5544 5546 5549 5553 5557 5563 5572 5580 5588 5596 5604 5613 5620
5568 5561 5555 5548 5542 5535 5528 5521 5516 5511 5507 5504 5501 5499 5498 5498 5498 5500 5501 5503 5506 5509 5513 5517 5521 5525 5529 5532 5534 5535 5537 5539 5542 5545 5549 5553 5560 5568 5575 5584 5593 5602 5610
5561 5554 5548 5541 5534 5527 5519 5512 5508 5503 5499 5496 5493 5491 5489 5488 5489 5490 5492 5495 5497 5502 5506 5511 5515 5518 5523 5526 5528 5530 5531 5533 5536 5539 5542 5546 5551 5557 5563 5573 5582 5592 5601
5556 5549 5542 5535 5528 5521 5512 5506 5501 5497 5493 5489 5486 5484 5482 5481 5482 5483 5485 5488 5491 5495 5500 5504 5509 5512 5517 5520 5523 5525 5526 5528 5531 5534 5537 5540 5543 5548 5555 5563 5574 5584 5592
5552 5545 5538 5531 5524 5516 5508 5502 5497 5492 5488 5484 5482 5480 5478 5477 5479 5479 5480 5483 5486 5490 5494 5498 5502 5507 5512 5515 5518 5521 5522 5524 5526 5529 5532 5534 5536 5541 5548 5556 5566 5573 5581
5549 5542 5535 5529 5522 5514 5506 5500 5495 5490 5485 5481 5479 5477 5476 5475 5475 5475 5477 5480 5482 5485 5489 5493 5498 5503 5507 5510 5513 5516 5519 5520 5521 5524 5526 5528 5530 5535 5542 5550 5558 5566 5576
5547 5541 5534 5528 5522 5515 5507 5500 5494 5489 5484 5481 5478 5476 5475 5474 5474 5474 5476 5477 5480 5483 5487 5491 5495 5500 5503 5507 5509 5512 5514 5516 5517 5518 5520 5522 5525 5530 5537 5545 5554 5563 5573
5545 5539 5533 5527 5521 5515 5509 5502 5496 5490 5485 5482 5479 5477 5475 5474 5474 5474 5475 5477 5480 5483 5486 5491 5494 5497 5501 5504 5506 5508 5511 5512 5513 5514 5516 5519 5524 5529 5535 5543 5551 5559 5567
5545 5540 5534 5528 5523 5517 5511 5505 5498 5493 5488 5484 5481 5478 5476 5475 5475 5475 5476 5478 5480 5483 5486 5489 5493 5496 5499 5501 5503 5504 5506 5507 5508 5510 5514 5517 5522 5527 5534 5541 5548 5556 5563